MDT,Max TemperatureF,Mean TemperatureF,Min TemperatureF,Max Dew PointF,MeanDew PointF,Min DewpointF,Max Humidity, Mean Humidity, Min Humidity, Max Sea Level PressureIn, Mean Sea Level PressureIn, Min Sea Level PressureIn, Max VisibilityMiles, Mean VisibilityMiles, Min VisibilityMiles, Max Wind SpeedMPH, Mean Wind SpeedMPH, Max Gust SpeedMPH,PrecipitationIn, CloudCover, Events, WindDirDegrees
2011-9-1,94,81,68,60,53,42,63,41,18,30.18,29.92,29.78,10,10,5,25,7,33,0.08,5,Rain-Thunderstorm,326
2011-9-2,92,78,63,59,51,44,90,55,20,29.96,29.85,29.75,10,10,10,13,4,16,0.00,3,,313
2011-9-3,93,80,66,56,48,38,53,34,15,30.14,29.85,29.75,10,10,7,36,10,41,0.01,6,Rain-Thunderstorm,69
2011-9-4,79,73,66,55,51,48,63,51,38,30.28,30.03,29.90,10,10,10,33,18,43,T,6,,103
2011-9-5,82,72,62,50,47,44,65,47,28,30.31,30.04,29.92,10,10,10,21,8,24,0.00,3,,121
2011-9-6,85,75,65,61,53,46,76,53,29,30.20,30.00,29.91,10,10,7,23,6,26,0.08,5,Rain-Thunderstorm,188
2011-9-7,82,72,62,59,55,47,84,63,42,30.24,30.07,29.99,10,10,10,31,8,38,0.08,5,Rain-Thunderstorm,99
2011-9-8,79,69,59,44,38,32,51,35,19,30.23,30.12,30.01,10,10,10,25,13,31,0.00,4,,120
2011-9-9,73,66,58,54,46,37,78,56,34,30.08,30.04,29.97,10,10,3,29,15,35,0.05,7,Rain,77
2011-9-10,74,67,60,50,47,45,69,54,38,30.14,30.07,30.01,10,10,10,28,13,31,T,7,,87
2011-9-11,81,69,57,50,46,39,72,49,25,30.30,30.12,30.02,10,10,10,20,5,24,T,6,Rain-Thunderstorm,337
2011-9-12,79,68,56,52,48,44,77,54,31,30.32,30.14,30.09,10,10,10,18,5,22,0.00,5,,261
2011-9-13,82,69,55,54,47,42,72,49,26,30.22,30.06,29.95,10,10,10,26,5,31,0.02,4,Thunderstorm,262
2011-9-14,78,68,58,55,50,43,78,56,33,30.19,29.99,29.90,10,10,4,32,7,46,0.07,6,Rain-Thunderstorm,154
2011-9-15,73,65,57,54,50,43,80,62,44,30.14,29.97,29.87,10,10,8,28,7,33,0.01,5,Rain-Thunderstorm,142
2011-9-16,79,65,51,51,47,37,83,54,24,30.03,29.95,29.89,10,10,10,21,6,29,0.00,3,,229
2011-9-17,79,69,58,50,46,40,72,53,33,30.19,30.01,29.90,10,10,10,25,6,33,T,5,Rain-Thunderstorm,335
2011-9-18,81,68,54,46,41,35,62,41,20,30.13,30.07,30.01,10,10,9,21,6,29,0.00,2,,341
2011-9-19,83,69,55,48,40,36,57,39,21,30.17,30.05,29.94,10,10,10,29,5,43,T,2,Rain-Thunderstorm,13
2011-9-20,86,72,57,42,34,19,55,32,9,30.04,29.94,29.86,10,10,10,21,4,26,0.00,1,,354
2011-9-21,84,73,62,41,37,30,46,32,17,30.15,29.97,29.88,10,10,10,45,9,55,T,3,Rain-Thunderstorm,59
2011-9-22,81,69,56,41,35,29,59,38,16,30.18,30.05,29.96,10,10,10,30,8,37,0.00,0,,74
2011-9-23,86,69,52,38,28,14,51,31,10,30.17,30.08,29.99,10,10,10,12,3,13,0.00,1,,354
2011-9-24,87,70,53,27,20,12,28,18,7,30.24,29.97,29.83,10,10,8,18,6,23,0.00,1,,2
2011-9-25,87,71,54,31,20,15,27,17,7,30.10,29.86,29.75,10,10,10,18,4,24,0.00,1,,295
2011-9-26,88,72,55,34,30,20,41,25,9,29.92,29.86,29.78,10,10,10,15,5,18,0.00,1,,180
2011-9-27,85,74,62,41,35,29,36,25,14,30.19,29.97,29.90,10,10,10,29,9,36,T,4,Rain-Thunderstorm,44
2011-9-28,88,72,56,40,33,25,47,29,10,30.05,29.95,29.85,10,10,10,14,5,17,0.00,1,,341
2011-9-29,89,75,60,41,32,25,34,24,14,30.30,30.04,29.88,10,10,8,36,14,46,T,3,Rain,65
2011-9-30,79,69,58,39,34,32,39,30,20,30.25,30.14,30.03,10,10,8,33,9,41,0.00,1,,119